Change the Weather History Date:

Monday, March 18, 2013

  Actual Average Record
Temperature  
Mean Temperature 37 °F 42 °F  
Max Temperature 47 °F 52 °F 79 °F (2012)
Min Temperature 26 °F 31 °F 3 °F (1923)
Degree Days  
Heating Degree Days 28 23  
Month to date heating degree days 593 485  
Since 1 July heating degree days 4973 5018  
Cooling Degree Days 0 0  
Month to date cooling degree days 0 0  
Year to date cooling degree days 0 0  
Moisture  
Dew Point 29 °F    
Average Humidity 70    
Maximum Humidity 100    
Minimum Humidity 40    
Precipitation  
Precipitation 0.02 in 0.08 in 0.92 in (1961)
Month to date precipitation 2.66 1.51  
Year to date precipitation 8.11 4.31  
Sea Level Pressure  
Sea Level Pressure 29.82 in    
Wind  
Wind Speed 13 mph (NW)    
Max Wind Speed 30 mph    
Max Gust Speed 43 mph    
Visibility 6 miles    
Events      
T = Trace of Precipitation, MM = Missing Value Source: NWS Daily Summary

Daily Weather History Graph

Daily Weather History Graph

Search for Another Location

Airport or City:

Trip Planner

Search our weather history database for the weather conditions in past years. The results will help you decide how hot, cold, wet, or windy it might be!

Date:

Astronomy

Mar. 18, 2013 Rise Set
Actual Time 7:16 AM CDT 7:20 PM CDT
Civil Twilight 6:49 AM CDT 7:47 PM CDT
Nautical Twilight 6:17 AM CDT 8:19 PM CDT
Astronomical Twilight 5:45 AM CDT 8:51 PM CDT
Moon 11:16 AM CDT (3/18) 1:20 AM CDT (3/18)
Length of Visible Light 12h 58m
Length of Day
12h 04m
Waxing Crescent, 41% of the Moon is Illuminated
Mar 18
Waxing Crescent
Mar 19
First Quarter
Mar 27
Full
Apr 2
Last Quarter
Apr 10
New

Hourly Weather History & Observations

Time (CDT) Temp. Windchill Dew Point Humidity Pressure Visibility Wind Dir Wind Speed Gust Speed Precip Events Conditions
12:55 AM 34.0 °F 26.6 °F 30.9 °F 89% 29.81 in 9.0 mi East 9.2 mph - N/A   Overcast
1:55 AM 34.0 °F 28.0 °F 30.9 °F 89% 29.81 in 8.0 mi East 6.9 mph - N/A   Overcast
2:15 AM 33.8 °F 28.6 °F 32.0 °F 93% 29.78 in 2.5 mi East 5.8 mph - N/A   Overcast
2:55 AM 33.1 °F 27.7 °F 32.0 °F 96% 29.80 in 3.0 mi East 5.8 mph - 0.01 in   Overcast
3:02 AM 33.8 °F 27.7 °F 32.0 °F 93% 29.76 in 2.0 mi East 6.9 mph - N/A   Overcast
3:09 AM 33.8 °F 27.0 °F 32.0 °F 93% 29.76 in 1.5 mi East 8.1 mph - N/A   Overcast
3:21 AM 33.8 °F 29.6 °F 32.0 °F 93% 29.76 in 2.5 mi East 4.6 mph - N/A   Overcast
3:34 AM 33.8 °F 27.7 °F 32.0 °F 93% 29.75 in 1.8 mi ENE 6.9 mph - N/A   Overcast
3:48 AM 33.8 °F 29.6 °F 32.0 °F 93% 29.75 in 2.5 mi ENE 4.6 mph - 0.01 in   Overcast
3:55 AM 33.1 °F 28.7 °F 32.0 °F 96% 29.78 in 2.5 mi East 4.6 mph - 0.01 in   Overcast
4:15 AM 33.8 °F 29.6 °F 32.0 °F 93% 29.74 in 3.0 mi East 4.6 mph - N/A   Overcast
4:55 AM 33.1 °F 28.7 °F 32.0 °F 96% 29.75 in 4.0 mi East 4.6 mph - N/A   Overcast
5:55 AM 33.1 °F - 32.0 °F 96% 29.76 in 4.0 mi Calm Calm - N/A   Overcast
6:55 AM 33.1 °F - 32.0 °F 96% 29.78 in 3.0 mi Calm Calm - N/A   Overcast
7:05 AM 33.8 °F - 32.0 °F 93% 29.74 in 2.5 mi Calm Calm - N/A   Overcast
7:16 AM 33.8 °F 30.8 °F 32.0 °F 93% 29.75 in 1.8 mi West 3.5 mph - N/A   Overcast
7:55 AM 33.1 °F 26.9 °F 33.1 °F 100% 29.78 in 1.0 mi West 6.9 mph - N/A   Overcast
8:24 AM 33.8 °F 28.6 °F 33.8 °F 100% 29.74 in 2.5 mi WNW 5.8 mph - N/A   Overcast
8:33 AM 33.8 °F 28.6 °F 33.8 °F 100% 29.74 in 3.0 mi WNW 5.8 mph - N/A   Overcast
8:55 AM 34.0 °F 26.6 °F 34.0 °F 100% 29.79 in 4.0 mi West 9.2 mph - 0.00 in   Overcast
9:31 AM 33.8 °F 25.8 °F 33.8 °F 100% 29.76 in 6.0 mi West 10.4 mph 18.4 mph 0.00 in   Overcast
9:55 AM 35.1 °F 27.4 °F 35.1 °F 100% 29.78 in 7.0 mi West 10.4 mph - 0.00 in   Overcast
10:55 AM 37.0 °F 27.0 °F 34.0 °F 89% 29.80 in 9.0 mi West 18.4 mph 26.5 mph N/A   Overcast
11:03 AM 37.4 °F 28.2 °F 33.8 °F 87% 29.77 in 9.0 mi WNW 16.1 mph 25.3 mph N/A   Overcast
11:36 AM 39.2 °F 30.5 °F 33.8 °F 81% 29.77 in 10.0 mi WNW 16.1 mph 23.0 mph N/A   Overcast
11:55 AM 39.9 °F 30.2 °F 33.1 °F 77% 29.81 in 10.0 mi WNW 20.7 mph 31.1 mph N/A   Overcast
12:38 PM 44.6 °F 36.9 °F 33.8 °F 66% 29.78 in 10.0 mi WNW 18.4 mph 28.8 mph N/A   Mostly Cloudy
12:55 PM 45.0 °F 36.6 °F 32.0 °F 60% 29.81 in 10.0 mi WNW 21.9 mph 34.5 mph N/A   Mostly Cloudy
1:55 PM 45.0 °F 36.2 °F 24.1 °F 44% 29.82 in 10.0 mi WNW 24.2 mph 40.3 mph N/A   Clear
2:55 PM 46.0 °F 37.0 °F 24.1 °F 42% 29.82 in 10.0 mi WNW 27.6 mph 35.7 mph N/A   Clear
3:55 PM 44.1 °F 35.4 °F 23.0 °F 43% 29.84 in 10.0 mi WNW 21.9 mph 42.6 mph N/A   Partly Cloudy
4:55 PM 44.1 °F 35.4 °F 24.1 °F 45% 29.85 in 10.0 mi NW 21.9 mph 28.8 mph N/A   Scattered Clouds
5:55 PM 39.9 °F 30.0 °F 18.0 °F 41% 29.89 in 10.0 mi WNW 21.9 mph 34.5 mph N/A   Clear
6:55 PM 36.0 °F 26.0 °F 19.0 °F 50% 29.93 in 10.0 mi WNW 17.3 mph 27.6 mph N/A   Clear
7:55 PM 33.1 °F 23.4 °F 18.0 °F 54% 29.97 in 10.0 mi WNW 13.8 mph 21.9 mph N/A   Clear
8:55 PM 30.9 °F 21.7 °F 17.1 °F 57% 30.01 in 10.0 mi WNW 11.5 mph - N/A   Clear
9:55 PM 28.9 °F 19.2 °F 17.1 °F 61% 30.04 in 10.0 mi WNW 11.5 mph - N/A   Clear
10:55 PM 28.9 °F 18.2 °F 16.0 °F 58% 30.05 in 10.0 mi WNW 13.8 mph - N/A   Clear
11:55 PM 28.0 °F 19.3 °F 16.0 °F 61% 30.04 in 10.0 mi West 9.2 mph - N/A   Clear